Location: Unspecified
(46.1754°N, 0.0000°E)
Time: 14:43:36
(UTC+00:00)

Envisat - Visible Passes

Search period start: 15 November 2019 00:00
Search period end: 25 November 2019 00:00
Orbit: 764 x 766 km, 98.1° (Epoch: 14 November)

Date Brightness Start Highest point End Pass type
(mag) Time Alt. Az. Time Alt. Az. Time Alt. Az.
15 Nov 3.2 18:06:09 10° S 18:11:13 73° WSW 18:16:19 10° NNW visible
16 Nov 5.1 06:12:42 10° NNE 06:17:16 32° E 06:21:48 10° SSE visible
16 Nov 3.1 17:29:33 10° SSE 17:34:29 55° ENE 17:39:28 10° N visible
16 Nov 5.5 19:10:06 10° SW 19:13:51 21° W 19:17:38 10° NW visible
17 Nov 6.0 05:37:06 10° NE 05:40:08 16° E 05:43:08 10° SE visible
17 Nov 3.9 16:53:44 10° ESE 16:57:58 28° ENE 17:02:14 10° N visible
17 Nov 4.2 18:31:59 10° S 18:36:48 42° W 18:41:38 10° NNW visible
18 Nov 3.0 17:54:51 10° SSE 17:59:56 89° WSW 18:05:03 10° NNW visible
18 Nov 6.1 19:37:48 10° WSW 19:39:41 12° W 19:41:35 10° WNW visible
19 Nov 5.4 06:01:39 10° NE 06:05:54 26° E 06:10:08 10° SSE visible
19 Nov 3.3 17:18:29 10° SE 17:23:17 44° ENE 17:28:06 10° N visible
19 Nov 5.2 18:58:18 10° SSW 19:02:28 25° W 19:06:41 10° NW visible
20 Nov 6.2 05:26:39 10° ENE 05:28:42 12° E 05:30:46 10° ESE visible
20 Nov 3.8 18:20:31 10° S 18:25:28 53° W 18:30:28 10° NNW visible
21 Nov 4.4 06:26:43 10° NNE 06:31:35 44° E 06:36:24 10° S visible
21 Nov 2.9 17:43:37 10° SSE 17:48:40 74° ENE 17:53:46 10° N visible
21 Nov 5.9 19:25:22 10° WSW 19:28:15 15° W 19:31:10 10° NW visible
22 Nov 5.8 05:50:41 10° NE 05:54:32 21° E 05:58:21 10° SE visible
22 Nov 3.5 17:07:28 10° SE 17:12:04 36° ENE 17:16:41 10° N visible
22 Nov 4.8 18:46:36 10° SSW 18:51:07 31° W 18:55:39 10° NNW visible
23 Nov 3.3 18:09:08 10° S 18:14:10 67° WSW 18:19:15 10° NNW visible
24 Nov 4.9 06:15:35 10° NNE 06:20:15 35° E 06:24:52 10° SSE visible
24 Nov 3.0 17:32:27 10° SSE 17:37:25 60° ENE 17:42:26 10° N visible
24 Nov 5.6 19:13:17 10° SW 19:16:51 19° W 19:20:26 10° NW visible
